This is the latest recevied weather packets stored in our database for station/object KC1TLF-15. If no packets are shown the sender has not sent any weather packets the latest 10 day(s).
| Time | Temp. | Humidity | Pressure | Rain* | Wind** | Luminosity | Snow |
|---|---|---|---|---|---|---|---|
| 1777897270 | 13.33° C | 47% | 1018.5 hPa | 0 mm | 0.89 m/s, 300° | 327 W/m² | - |
| 1777896670 | 12.78° C | 48% | 1018.4 hPa | 0 mm | 0 m/s | 308 W/m² | - |
| 1777896070 | 11.67° C | 50% | 1018.6 hPa | 0 mm | 0.45 m/s, 315° | 170 W/m² | - |
| 1777895470 | 11.67° C | 51% | 1018.2 hPa | 0 mm | 0.89 m/s, 312° | 225 W/m² | - |
| 1777894870 | 11.11° C | 52% | 1018.1 hPa | 0 mm | 0.45 m/s, 318° | - | - |
| 1777894272 | 11.11° C | 51% | 1018.5 hPa | 0 mm | 0.45 m/s, 285° | 110 W/m² | - |
| 1777893669 | 11.11° C | 53% | 1018.1 hPa | 0 mm | 0 m/s | 105 W/m² | - |
| 1777893071 | 10.56° C | 52% | 1018.1 hPa | 0 mm | 0.45 m/s, 280° | 124 W/m² | - |
| 1777892469 | 10° C | 54% | 1018.3 hPa | 0 mm | 0 m/s | - | - |
| 1777891871 | 10° C | 55% | 1018.3 hPa | 0 mm | 0.45 m/s, 304° | - | - |
| 1777891271 | 8.89° C | 58% | 1018.2 hPa | 0 mm | 0.45 m/s, 298° | - | - |
| 1777890671 | 7.78° C | 66% | 1018.4 hPa | 0 mm | 0 m/s | - | - |
| 1777890071 | 7.78° C | 66% | 1018.2 hPa | 0 mm | 0 m/s | - | - |
| 1777889470 | 7.22° C | 68% | 1018.2 hPa | 0 mm | 0 m/s | - | - |
| 1777888871 | 6.67° C | 68% | 1018.3 hPa | 0 mm | 0 m/s | - | - |
| 1777888268 | 7.22° C | 66% | 1018.4 hPa | 0 mm | 0 m/s | - | - |
| 1777887669 | 7.22° C | 66% | 1018.2 hPa | 0 mm | 0 m/s | - | - |
| 1777887070 | 7.22° C | 65% | 1018.3 hPa | 0 mm | 0 m/s | - | - |
| 1777886470 | 7.22° C | 66% | 1018.4 hPa | 0 mm | 0 m/s | - | - |
| 1777885870 | 6.67° C | 68% | 1018.3 hPa | 0 mm | 0 m/s | - | - |
| 1777885270 | 6.67° C | 69% | 1018.2 hPa | 0 mm | 0 m/s | 0 W/m² | - |
| 1777884670 | 6.67° C | 68% | 1018.4 hPa | 0 mm | 0 m/s | 0 W/m² | - |
| 1777884069 | 6.67° C | 73% | 1018.6 hPa | 0 mm | 0 m/s | 0 W/m² | - |
| 1777883469 | 6.67° C | 67% | 1018.2 hPa | 0 mm | 0 m/s | 0 W/m² | - |
| 1777882869 | 6.67° C | 69% | 1018.1 hPa | 0 mm | 0 m/s | 0 W/m² | - |
* Rain latest hour (hover to see other rain measurements)
** Current wind speed in m/s (hover to see current wind gust speed)